Waarnemingen

Advertentie
Mijn weer
Soderstjerna, Zweden (2667): temperatuur & dauwpunt: 14.01.2021 23:00:00 - 20.01.2021 23:00:00 (CET)Soderstjerna, Zweden (2667): windsnelheid & windstoten: 14.01.2021 23:00:00 - 20.01.2021 23:00:00 (CET)Soderstjerna, Zweden (2667): windrichting: 14.01.2021 23:00:00 - 20.01.2021 23:00:00 (CET)Soderstjerna, Zweden (2667): luchtdruk: 14.01.2021 23:00:00 - 20.01.2021 23:00:00 (CET)Soderstjerna, Zweden (2667): zicht: 14.01.2021 23:00:00 - 20.01.2021 23:00:00 (CET)Soderstjerna, Zweden (2667): neerslag: 14.01.2021 23:00:00 - 20.01.2021 23:00:00 (CET)
Datum & Tijd tt [°C] td [°C] ff [km/u] ff [kn] fx [km/u] fx [kn] dd ppp [hPa] vv [km] rr [mm]
20.01.2021 23:00:00 - - - - - - - - - -
20.01.2021 22:00:00 5,4 4,7 29 16 40 21 ZW 995,6 28 0,0
20.01.2021 21:00:00 5,3 4,6 29 16 40 21 ZW 995,5 26 0,0
20.01.2021 20:00:00 5,2 4,8 25 14 40 21 ZW 995,6 19 0,2
20.01.2021 19:00:00 4,8 4,5 32 18 43 23 ZW 995,4 5 0,1
20.01.2021 18:00:00 4,8 4,5 32 18 43 23 ZW 995,3 8 0,7
20.01.2021 17:00:00 4,8 4,5 32 18 43 23 ZW 995,5 4,2 3,0
20.01.2021 16:00:00 4,7 4,4 32 18 40 21 ZW 995,4 4,7 1,0
20.01.2021 15:00:00 4,9 4,6 32 18 40 21 ZW 995,4 5 0,1
20.01.2021 14:00:00 4,8 4,5 29 16 40 21 ZW 995,8 8 2,0
20.01.2021 13:00:00 4,8 4,7 32 18 40 21 ZW 996,3 6 2,0
20.01.2021 12:00:00 5,0 4,7 32 18 40 21 ZW 996,5 6 1,0
20.01.2021 11:00:00 5,1 4,8 29 16 43 23 ZW 997,0 7 0,9
20.01.2021 10:00:00 5,2 5,1 25 14 32 18 ZW 996,9 8 0,6
20.01.2021 09:00:00 4,1 3,8 18 10 25 14 ZZO 997,3 5 0,3
20.01.2021 08:00:00 3,8 3,4 18 10 25 14 ZZO 997,8 10 0,4
20.01.2021 07:00:00 3,7 3,1 22 12 25 14 ZZO 998,1 9 0,1
20.01.2021 06:00:00 3,6 3,0 18 10 22 12 Z 998,6 13 0,1
20.01.2021 05:00:00 3,3 2,7 14 8 22 12 Z 999,2 19 0,4
20.01.2021 04:00:00 3,1 2,4 18 10 22 12 Z 999,6 14 0,2
20.01.2021 03:00:00 3,2 2,3 14 8 18 10 Z 999,8 25 0,0
20.01.2021 02:00:00 3,1 2,2 14 8 22 12 Z 1000,1 45 0,0
20.01.2021 01:00:00 3,2 2,2 18 10 25 14 ZZW 1000,5 35 0,0
20.01.2021 00:00:00 3,1 2,2 22 12 29 16 ZZW 1001,0 18 0,0
19.01.2021 23:00:00 3,2 2,3 22 12 25 14 ZZW 1001,1 24 0,0
19.01.2021 22:00:00 3,2 2,3 18 10 25 14 Z 1001,4 17 0,1
19.01.2021 21:00:00 3,0 2,3 18 10 32 18 Z 1001,6 14 0,3
19.01.2021 20:00:00 3,0 2,1 22 12 32 18 Z 1001,7 10 0,7
19.01.2021 19:00:00 3,3 2,4 22 12 29 16 Z 1002,1 10 0,4
19.01.2021 18:00:00 3,3 2,7 18 10 22 12 Z 1002,3 11 0,4
19.01.2021 17:00:00 3,2 2,6 14 8 22 12 Z 1002,8 10 0,3
19.01.2021 16:00:00 3,1 2,5 11 6 22 12 Z 1003,1 14 0,3
19.01.2021 15:00:00 3,0 2,4 18 10 22 12 ZZW 1003,3 11 0,6
19.01.2021 14:00:00 3,0 2,4 4 2 7 4 O 1003,9 35 0,0
19.01.2021 13:00:00 3,4 2,8 0 0 11 6 N 1004,8 29 0,0
19.01.2021 12:00:00 2,8 2,4 7 4 14 8 ZW 1005,5 29 0,0
19.01.2021 11:00:00 3,2 2,6 7 4 22 12 ZW 1006,3 19 0,1
19.01.2021 10:00:00 2,9 2,5 14 8 22 12 ZZO 1006,8 3,5 0,2
19.01.2021 09:00:00 2,6 2,0 18 10 22 12 ZZO 1007,2 4,8 0,0
19.01.2021 08:00:00 2,5 1,8 14 8 22 12 ZZO 1007,6 6 0,0
19.01.2021 07:00:00 2,3 1,4 18 10 22 12 ZZO 1008,0 8 0,0
19.01.2021 06:00:00 2,1 1,2 18 10 25 14 ZZO 1008,4 8 0,0
19.01.2021 05:00:00 2,1 1,2 22 12 29 16 Z 1009,0 6 0,0
19.01.2021 04:00:00 2,2 1,0 22 12 32 18 Z 1009,4 8 0,0
19.01.2021 03:00:00 2,2 1,2 25 14 32 18 Z 1010,1 9 0,0
19.01.2021 02:00:00 2,1 1,2 25 14 32 18 Z 1010,3 11 0,0
19.01.2021 01:00:00 2,2 1,0 25 14 32 18 Z 1010,8 12 0,0
19.01.2021 00:00:00 2,2 0,9 25 14 29 16 Z 1011,3 13 0,0
18.01.2021 23:00:00 2,2 0,9 22 12 25 14 ZZW 1011,9 12 0,0
18.01.2021 22:00:00 2,1 0,3 14 8 32 18 ZZW 1012,4 12 0,0
18.01.2021 21:00:00 1,9 0,3 25 14 32 18 Z 1012,8 18 0,0
18.01.2021 20:00:00 1,7 -0,9 25 14 32 18 ZZW 1013,2 30 0,0
18.01.2021 19:00:00 1,4 -2,5 25 14 32 18 ZW 1013,7 28 0,0
18.01.2021 18:00:00 1,4 -1,7 25 14 32 18 ZZW 1013,9 18 0,0
18.01.2021 17:00:00 1,4 -1,8 25 14 29 16 ZZW 1014,4 25 0,0
18.01.2021 16:00:00 1,5 -1,6 22 12 29 16 ZW 1014,9 29 0,0
18.01.2021 15:00:00 1,7 -2,4 22 12 32 18 ZW 1015,3 40 0,0
18.01.2021 14:00:00 1,7 -2,8 29 16 32 18 ZW 1015,8 45 0,0
18.01.2021 13:00:00 1,7 -2,6 25 14 32 18 ZW 1016,4 45 0,0
18.01.2021 12:00:00 1,7 -1,9 18 10 25 14 ZW 1016,9 45 0,0
18.01.2021 11:00:00 -0,1 -1,1 7 4 7 4 OZO 1017,5 18 0,0
18.01.2021 10:00:00 -0,2 -1,0 0 0 11 6 N 1017,8 12 0,0
18.01.2021 09:00:00 -0,2 -1,5 4 2 11 6 ZO 1018,0 25 0,0
18.01.2021 08:00:00 -0,9 -2,2 4 2 7 4 OZO 1018,3 19 0,0
18.01.2021 07:00:00 -0,8 -2,2 0 0 7 4 N 1018,1 30 0,0
18.01.2021 06:00:00 -1,1 -2,4 4 2 7 4 NO 1018,4 26 0,0
18.01.2021 05:00:00 -0,5 -1,9 0 0 7 4 N 1018,9 40 0,0
18.01.2021 04:00:00 -0,4 -1,5 0 0 0 0 N 1019,1 35 0,0
18.01.2021 03:00:00 -0,5 -1,9 0 0 0 0 N 1019,3 28 0,0
18.01.2021 02:00:00 -1,0 -2,7 0 0 7 4 N 1019,6 6 0,1
18.01.2021 01:00:00 -0,9 -2,6 4 2 7 4 O 1020,0 35 0,0
18.01.2021 00:00:00 -1,0 -2,7 4 2 4 2 O 1020,4 26 0,0
17.01.2021 23:00:00 -1,6 -3,3 0 0 7 4 N 1020,7 23 0,0
17.01.2021 22:00:00 -1,1 -3,0 4 2 7 4 NO 1020,8 30 0,0
17.01.2021 21:00:00 -0,8 -3,0 4 2 7 4 O 1021,1 45 0,0
17.01.2021 20:00:00 -0,7 -3,2 7 4 11 6 ONO 1021,3 50 0,0
17.01.2021 19:00:00 -0,9 -3,6 7 4 11 6 NO 1021,6 45 0,0
17.01.2021 18:00:00 -0,8 -3,5 7 4 14 8 NO 1021,5 50 0,0
17.01.2021 17:00:00 -0,7 -3,6 7 4 14 8 NO 1021,4 50 0,0
17.01.2021 16:00:00 -0,7 -3,7 7 4 14 8 NO 1021,3 50 0,0
17.01.2021 15:00:00 -0,3 -3,5 11 6 14 8 NO 1021,0 45 0,0
17.01.2021 14:00:00 -0,3 -2,8 7 4 14 8 O 1021,0 45 0,0
17.01.2021 13:00:00 -0,3 -2,8 11 6 18 10 OZO 1021,1 40 0,0
17.01.2021 12:00:00 -0,7 -3,7 7 4 14 8 ONO 1021,3 45 0,0
17.01.2021 11:00:00 -1,1 -4,3 11 6 14 8 NO 1021,4 45 0,0
17.01.2021 10:00:00 -1,4 -4,6 7 4 18 10 NNO 1020,9 50 0,0
17.01.2021 09:00:00 -1,3 -4,8 14 8 18 10 NO 1020,4 50 0,0
17.01.2021 08:00:00 -1,1 -4,6 7 4 22 12 NNO 1020,2 50 0,0
17.01.2021 07:00:00 -1,1 -3,9 14 8 22 12 NO 1019,7 50 0,0
17.01.2021 06:00:00 -1,3 -3,8 11 6 22 12 NO 1019,5 40 0,0
17.01.2021 05:00:00 -1,3 -3,8 14 8 22 12 NO 1019,2 50 0,0
17.01.2021 04:00:00 -1,2 -3,7 11 6 14 8 NO 1019,4 45 0,0
17.01.2021 03:00:00 -1,0 -3,2 7 4 18 10 NNO 1019,3 50 0,0
17.01.2021 02:00:00 -1,0 -2,7 7 4 18 10 NO 1019,5 50 0,0
17.01.2021 01:00:00 -0,9 -2,5 7 4 18 10 NO 1019,4 50 0,0
17.01.2021 00:00:00 -0,8 -2,1 11 6 22 12 NO 1019,3 50 0,0
16.01.2021 23:00:00 -0,8 -2,1 11 6 25 14 NO 1019,3 45 0,0
16.01.2021 22:00:00 -0,8 -2,1 18 10 25 14 NO 1018,9 50 0,0
16.01.2021 21:00:00 -1,0 -2,3 18 10 25 14 NO 1018,8 50 0,0
16.01.2021 20:00:00 -1,3 -2,7 7 4 25 14 NNO 1018,6 45 0,0
16.01.2021 19:00:00 -0,9 -2,6 11 6 22 12 NNO 1018,8 50 0,0
16.01.2021 18:00:00 -0,8 -2,7 11 6 22 12 NNO 1018,5 50 0,0
16.01.2021 17:00:00 -0,8 -3,0 11 6 18 10 N 1018,5 50 0,0
16.01.2021 16:00:00 -1,0 -4,0 7 4 14 8 N 1018,3 50 0,0
16.01.2021 15:00:00 -0,8 -4,3 11 6 25 14 N 1018,2 50 0,0
16.01.2021 14:00:00 -0,8 -4,7 14 8 25 14 N 1017,6 50 0,0
16.01.2021 13:00:00 -1,4 -5,4 14 8 25 14 N 1017,8 45 0,0
16.01.2021 12:00:00 -2,4 -6,1 18 10 32 18 N 1018,0 45 0,0
16.01.2021 11:00:00 -3,1 -6,7 18 10 32 18 NNW 1018,8 45 0,0
16.01.2021 10:00:00 -3,7 -7,3 18 10 32 18 NNW 1019,2 50 0,0
16.01.2021 09:00:00 -4,3 -7,4 18 10 32 18 NNW 1019,8 50 0,0
16.01.2021 08:00:00 -5,3 -7,6 11 6 18 10 NNW 1020,1 50 0,0
16.01.2021 07:00:00 -6,9 -8,6 11 6 22 12 WNW 1020,9 50 0,0
16.01.2021 06:00:00 -7,6 -9,4 14 8 22 12 WNW 1021,5 50 0,0
16.01.2021 05:00:00 -8,1 -9,9 7 4 22 12 WNW 1022,6 50 0,0
16.01.2021 04:00:00 -8,1 -10,2 14 8 22 12 NW 1023,1 50 0,0
16.01.2021 03:00:00 -8,2 -10,3 18 10 22 12 NNW 1023,6 50 0,0
16.01.2021 02:00:00 -7,5 -9,6 14 8 32 18 N 1023,7 50 0,0
16.01.2021 01:00:00 -7,9 -10,0 7 4 25 14 NNW 1024,3 50 0,0
16.01.2021 00:00:00 -7,4 -9,5 14 8 25 14 N 1024,6 50 0,0
15.01.2021 23:00:00 -7,4 -9,8 18 10 25 14 N 1024,8 50 0,0
15.01.2021 22:00:00 -7,3 -9,7 18 10 25 14 N 1024,8 50 0,0
15.01.2021 21:00:00 -7,0 -9,6 14 8 29 16 N 1024,6 50 0,0
15.01.2021 20:00:00 -6,6 -9,2 14 8 29 16 N 1024,5 50 0,0
15.01.2021 19:00:00 -6,3 -9,0 14 8 29 16 N 1024,8 50 0,0
15.01.2021 18:00:00 -5,9 -9,1 14 8 32 18 N 1024,5 50 0,0
15.01.2021 17:00:00 -5,2 -9,1 18 10 29 16 N 1024,2 45 0,0
15.01.2021 16:00:00 -4,5 -8,6 14 8 25 14 N 1024,1 45 0,0
15.01.2021 15:00:00 -4,1 -8,6 14 8 25 14 N 1023,8 45 0,0
15.01.2021 14:00:00 -3,7 -8,6 14 8 29 16 N 1023,5 45 0,0
15.01.2021 13:00:00 -3,5 -8,4 14 8 29 16 N 1023,5 45 0,0
15.01.2021 12:00:00 -3,5 -8,4 18 10 32 18 N 1023,5 45 0,0
15.01.2021 11:00:00 -4,3 -8,4 14 8 32 18 N 1023,5 45 0,0
15.01.2021 10:00:00 -5,6 -8,8 18 10 29 16 N 1023,2 45 0,0
15.01.2021 09:00:00 -6,1 -8,7 14 8 25 14 N 1022,9 50 0,0
15.01.2021 08:00:00 -5,8 -8,5 14 8 29 16 N 1022,4 50 0,0
15.01.2021 07:00:00 -5,1 -8,2 11 6 22 12 NNO 1022,3 50 0,0
15.01.2021 06:00:00 -4,7 -8,1 14 8 29 16 N 1021,9 50 0,0
15.01.2021 05:00:00 -4,8 -8,2 18 10 29 16 N 1021,7 50 0,0
15.01.2021 04:00:00 -5,0 -7,9 14 8 29 16 N 1021,9 50 0,0
15.01.2021 03:00:00 -4,4 -7,5 18 10 29 16 N 1021,7 50 0,0
15.01.2021 02:00:00 -3,3 -6,4 14 8 29 16 N 1021,5 50 0,0
15.01.2021 01:00:00 -2,8 -6,3 14 8 25 14 N 1021,2 50 0,0
15.01.2021 00:00:00 -2,5 -5,6 11 6 29 16 NNO 1021,1 50 0,0
14.01.2021 23:00:00 -2,1 -4,9 14 8 25 14 NNO 1021,0 50 0,0

tt = temperatuur
td = dauwpunt
ff = windsnelheid
fx = windstoten
dd = windrichting
ppp = luchtdruk
vv = zicht
rr = neerslag

Weerstations in de omgeving